Regional Weather Roundup
Issued by NWS

Home | Current Version | Previous Version | Graphics & Text | Print | Product List | Glossary Off
Versions: 1 2 3 4 5 6 7 8 9 10 11 12 13 14 15 16 17 18 19 20 21 22 23 24 25 26 27 28 29 30 31 32 33 34 35 36 37 38 39 40 41 42 43 44 45 46 47 48 49 50

000
ASUS45 KCYS 291610
RWRWY

WYOMING REGIONAL WEATHER ROUNDUP
NATIONAL WEATHER SERVICE CHEYENNE WY
1000 AM MDT WED MAR 29 2017

NOTE:  "FAIR" INDICATES FEW OR NO CLOUDS BELOW 12,000 FEET
WITH NO SIGNIFICANT WEATHER AND/OR OBSTRUCTIONS TO VISIBILITY.

WYZ001-291700-
YELLOWSTONE NATIONAL PARK

CITY           SKY/WX    TMP DP  RH WIND       PRES   REMARKS
LK YELLOWSTONE   N/A     31  24  75 VRB5      30.19F WCI  26
W YELLOWSTONE  NOT AVBL

$$
WYZ002>013-054>058-071-098>099-291700-
NORTHERN WYOMING

CITY           SKY/WX    TMP DP  RH WIND       PRES   REMARKS
JACKSON        SUNNY     30  23  74 N5        30.22S WCI  25
CODY           FAIR      49  24  37 W13G22    30.10S
GREYBULL       FAIR      43  34  70 E7        30.12F
WORLAND        FAIR      41  36  82 CALM      30.13S
SHERIDAN       FAIR      46  34  62 NE3       30.09S
BUFFALO        FAIR      51  27  39 SE5       30.10S
GILLETTE         N/A     48  37  65 MISG      30.08F
HULETT         FAIR      43  39  87 SW10      30.10F
NEWCASTLE      CLOUDY    41  36  81 N7        30.13S

$$
WYZ014>020-022>026-101>103-291700-
CENTRAL WYOMING

CITY           SKY/WX    TMP DP  RH WIND       PRES   REMARKS
BIG PINEY      FAIR      37  24  59 VRB7      30.21S WCI  32
PINEDALE       FAIR      34  21  60 NW14      30.19S WCI  24
DUBOIS         FAIR      37  19  48 NW18      30.13S WCI  27
LANDER         FAIR      39  32  76 CALM      30.13F
RIVERTON       FAIR      40  31  70 W8        30.15S WCI  34
CASPER         FAIR      44  34  67 SW12      30.13F
DOUGLAS        FAIR      44  36  73 NW10      30.12F

$$
WYZ021-027>030-104>119-291700-
SOUTHERN WYOMING

CITY           SKY/WX    TMP DP  RH WIND       PRES   REMARKS
EVANSTON       FAIR      34  24  67 SW10      30.24R WCI  26
KEMMERER         N/A     32  25  74 W9        30.23S WCI  24
ROCK SPRINGS   FAIR      34  25  69 SW13      30.21R WCI  25
DIXON            N/A     36  30  77 W3        30.23S
RAWLINS        CLOUDY    34  30  85 W10       30.18F WCI  26
SARATOGA       FAIR      37  30  75 SW3       30.18F
LARAMIE        PTSUNNY   35  30  82 N13       30.13F WCI  26
CHEYENNE       PTSUNNY   40  33  76 N14G20    30.10F WCI  32
TORRINGTON     FAIR      45  40  82 NW9       30.10S
PINE BLUFFS    CLOUDY    41  37  87 N14       30.11S

$$



USA.gov is the U.S. government's official web portal to all federal, state and local government web resources and services.